Zurück zum Katalog

WESTFORD NEEDLES

AktivPO
NORAD 2378·DEBRIS·🇺🇸 United States

Gestartet May 9, 1963 von Vandenberg Space Force Base

Loading…

Nächste Überflüge (nächste 24 Stunden)

TLE

AlterndSource: Space-Track

Epoche: Sep 5, 2026, 16:51 UTC

1 02378U 63014Y   26248.70259853  .00000575  00000-0  25344+0 0  9999
2 02378  87.3554 150.7328 0282689  87.1164 276.2003  8.66739967  2229

Verfolge WESTFORD NEEDLES in Echtzeit mit AllMySat

Download on the App Store